Location: Alvis C Story Elementary School
(33.0968°N, 96.6364°W)
Time: 09:36:15
(UTC+00:00)

Meteor 1-31 Rocket - Pass Details

Date: 09 July 2022
Orbit: 517 x 541 km, 97.7° (Epoch: 15 August)

Event Time Altitude Azimuth Distance (km) Brightness Sun altitude
Rises 10:49:43 0° 36° (NE) 2,700 7.9 -7.3°
Reaches altitude 10° 10:52:51 10° 64° (ENE) 1,805 7.2 -6.7°
Maximum altitude 10:54:46 13° 94° (E) 1,601 6.1 -6.4°
Drops below altitude 10° 10:56:40 10° 124° (ESE) 1,799 5.8 -6.0°
Sets 10:59:46 0° 151° (SSE) 2,684 6.3 -5.5°
